Willimantic, CT

6:58 AM EST on December 11, 2019 (GMT -0500)
Windham

Weather History for KIJD - October, 2019

Change the Weather History Date:

Thursday, October 24, 2019

  Actual Average Record
Temperature  
Mean Temperature 50 °F -  
Max Temperature 66 °F 62 °F 79 °F (1978)
Min Temperature 33 °F 34 °F 15 °F (1969)
Degree Days  
Heating Degree Days 16    
Moisture  
Dew Point 36 °F    
Average Humidity 85    
Maximum Humidity 100    
Minimum Humidity 32    
Precipitation  
Precipitation 0.00 in - - ()
Sea Level Pressure  
Sea Level Pressure 30.27 in    
Wind  
Wind Speed 2 mph ()    
Max Wind Speed 12 mph    
Max Gust Speed 17 mph    
Visibility 5.2 miles    
Events Fog    
Averages and records for this station are not official NWS values.
T = Trace of Precipitation, MM = Missing Value Source: Averaged Metar Reports

Daily Weather History Graph

Daily Weather History Graph

Search for Another Location

Airport or City:

Astronomy

Oct. 24, 2019 Rise Set
Actual Time 7:11 AM EDT 5:54 PM EDT
Civil Twilight 6:42 AM EDT 6:22 PM EDT
Nautical Twilight 6:10 AM EDT 6:55 PM EDT
Astronomical Twilight 5:37 AM EDT 7:27 PM EDT
Moon 2:32 AM EDT (10/24) 4:24 PM EDT (10/24)
Length of Visible Light 11h 40m
Length of Day
10h 43m
Waning Crescent, 17% of the Moon is Illuminated
Oct 24
Waning Crescent
Oct 27
New
Nov 4
First Quarter
Nov 12
Full
Nov 19
Last Quarter

Hourly Weather History & Observations

Time (EDT) Temp. Windchill Dew Point Humidity Pressure Visibility Wind Dir Wind Speed Gust Speed Precip Events Conditions
12:52 AM 37.9 °F 34.4 °F 37.0 °F 97% 30.17 in 10.0 mi NE 4.6 mph - N/A   Clear
1:52 AM 37.9 °F - 37.0 °F 97% 30.20 in 10.0 mi Calm Calm - N/A   Clear
2:52 AM 36.0 °F - 35.1 °F 97% 30.21 in 10.0 mi Calm Calm - N/A   Clear
3:12 AM 35.1 °F 32.2 °F 34.0 °F 96% 30.21 in 10.0 mi NE 3.5 mph - N/A   Scattered Clouds
3:21 AM 36.0 °F - 35.1 °F 97% 30.22 in 10.0 mi Calm Calm - N/A   Mostly Cloudy
3:36 AM 36.0 °F - 34.0 °F 93% 30.22 in 10.0 mi Calm Calm - N/A   Overcast
3:52 AM 36.0 °F 33.3 °F 35.1 °F 97% 30.23 in 1.5 mi NE 3.5 mph - N/A   Overcast
3:58 AM 35.1 °F 32.2 °F 35.1 °F 100% 30.22 in 0.2 mi NE 3.5 mph - N/A Fog Fog
4:07 AM 36.0 °F 33.3 °F 35.1 °F 97% 30.23 in 0.2 mi NE 3.5 mph - N/A Fog Fog
4:52 AM 34.0 °F - 34.0 °F 100% 30.25 in 0.2 mi Calm Calm - N/A Fog Fog
4:59 AM 35.1 °F - 34.0 °F 96% 30.25 in 0.5 mi Calm Calm - N/A Fog Fog
5:08 AM 35.1 °F - 34.0 °F 96% 30.25 in 1.0 mi Calm Calm - N/A   Mist
5:15 AM 34.0 °F - 34.0 °F 100% 30.26 in 1.5 mi Calm Calm - N/A   Partly Cloudy
5:19 AM 33.1 °F - 33.1 °F 100% 30.26 in 0.8 mi Calm Calm - N/A   Mist
5:30 AM 34.0 °F 31.0 °F 33.1 °F 96% 30.26 in 0.2 mi NNE 3.5 mph - N/A Fog Fog
5:38 AM 34.0 °F - 34.0 °F 100% 30.27 in 0.2 mi Calm Calm - N/A Fog Fog
5:52 AM 34.0 °F - 34.0 °F 100% 30.27 in 0.2 mi Calm Calm - N/A Fog Fog
6:00 AM 34.0 °F - 34.0 °F 100% 30.27 in 0.8 mi Calm Calm - N/A   Mist
6:08 AM 34.0 °F - 34.0 °F 100% 30.27 in 2.0 mi Calm Calm - N/A   Mostly Cloudy
6:14 AM 34.0 °F - 33.1 °F 96% 30.28 in 1.5 mi Calm Calm - N/A   Scattered Clouds
6:17 AM 33.1 °F - 33.1 °F 100% 30.28 in 0.8 mi Calm Calm - N/A   Mist
6:49 AM 33.8 °F - 33.8 °F 100% 30.28 in 3.0 mi Calm Calm - N/A   Mostly Cloudy
6:52 AM 33.1 °F - 33.1 °F 100% 30.29 in 5.0 mi Calm Calm - N/A   Mostly Cloudy
7:00 AM 33.1 °F - 33.1 °F 100% 30.29 in 1.5 mi Calm Calm - N/A   Mostly Cloudy
7:07 AM 33.1 °F - 33.1 °F 100% 30.30 in 0.2 mi Calm Calm - N/A Fog Fog
7:16 AM 33.1 °F - 33.1 °F 100% 30.30 in 0.2 mi Calm Calm - N/A Fog Fog
7:52 AM 33.1 °F - 33.1 °F 100% 30.32 in 0.2 mi Calm Calm - N/A Fog Fog
8:07 AM 34.0 °F - 34.0 °F 100% 30.31 in 0.2 mi Calm Calm - N/A Fog Fog
8:47 AM 35.6 °F - 35.6 °F 100% 30.32 in 0.2 mi Calm Calm - N/A Fog Fog
8:52 AM 37.0 °F - 36.0 °F 96% 30.33 in 0.2 mi Calm Calm - N/A Fog Fog
9:09 AM 37.9 °F - 37.9 °F 100% 30.33 in 1.0 mi Calm Calm - N/A   Mist
9:12 AM 37.9 °F - 37.9 °F 100% 30.33 in 4.0 mi Calm Calm - N/A   Mostly Cloudy
9:22 AM 39.0 °F - 39.0 °F 100% 30.33 in 10.0 mi Calm Calm - N/A   Scattered Clouds
9:52 AM 44.1 °F - 39.9 °F 85% 30.33 in 10.0 mi North - - N/A   Clear
10:52 AM 53.1 °F - 41.0 °F 64% 30.34 in 10.0 mi Calm Calm - N/A   Clear
11:52 AM 63.0 °F - 35.1 °F 35% 30.31 in 10.0 mi SW 9.2 mph - N/A   Clear
12:52 PM 64.9 °F - 36.0 °F 34% 30.29 in 10.0 mi SSW 8.1 mph - N/A   Clear
1:52 PM 66.9 °F - 36.0 °F 32% 30.27 in 10.0 mi SSW 8.1 mph - N/A   Clear
2:52 PM 66.9 °F - 36.0 °F 32% 30.25 in 10.0 mi WSW 10.4 mph - N/A   Clear
3:52 PM 66.0 °F - 35.1 °F 32% 30.26 in 10.0 mi SSW 11.5 mph - N/A   Clear
4:52 PM 64.0 °F - 34.0 °F 33% 30.26 in 10.0 mi SW 9.2 mph 17.3 mph N/A   Clear
5:52 PM 61.0 °F - 36.0 °F 39% 30.26 in 10.0 mi SSW 8.1 mph - N/A   Clear
6:52 PM 57.0 °F - 37.9 °F 49% 30.27 in 10.0 mi South 5.8 mph - N/A   Clear
7:52 PM 55.0 °F - 39.9 °F 57% 30.28 in 10.0 mi South 4.6 mph - N/A   Clear
8:52 PM 51.1 °F - 39.9 °F 66% 30.29 in 10.0 mi SSW 3.5 mph - N/A   Clear
9:52 PM 48.0 °F - 41.0 °F 77% 30.30 in 10.0 mi NE 4.6 mph - N/A   Clear
10:52 PM 45.0 °F - 41.0 °F 86% 30.30 in 10.0 mi Calm Calm - N/A   Clear
11:52 PM 44.1 °F - 41.0 °F 89% 30.31 in 10.0 mi Calm Calm - N/A   Clear